Mount Vernon, IL

7:20 PM CST on November 24, 2017 (GMT -0600)
Mount Vernon

Weather History for KMVN - February, 2013

Change the Weather History Date:

Monday, February 18, 2013

  Actual Average Record
Temperature  
Mean Temperature 44 °F -  
Max Temperature 55 °F 44 °F 62 °F (1997)
Min Temperature 33 °F 28 °F -7 °F (2015)
Degree Days  
Heating Degree Days 21    
Moisture  
Dew Point 37 °F    
Average Humidity 73    
Maximum Humidity 93    
Minimum Humidity 56    
Precipitation  
Precipitation 0.33 in - - ()
Sea Level Pressure  
Sea Level Pressure 29.85 in    
Wind  
Wind Speed 12 mph (South)    
Max Wind Speed 32 mph    
Max Gust Speed 38 mph    
Visibility 10 miles    
Events      
Averages and records for this station are not official NWS values.
T = Trace of Precipitation, MM = Missing Value Source: NWS Daily Summary

Daily Weather History Graph

Daily Weather History Graph

Search for Another Location

Airport or City:

Trip Planner

Search our weather history database for the weather conditions in past years. The results will help you decide how hot, cold, wet, or windy it might be!

Date:

Astronomy

Feb. 18, 2013 Rise Set
Actual Time 6:41 AM CST 5:37 PM CST
Civil Twilight 6:14 AM CST 6:04 PM CST
Nautical Twilight 5:44 AM CST 6:35 PM CST
Astronomical Twilight 5:13 AM CST 7:05 PM CST
Moon 11:25 AM CST (2/18) 1:19 AM CST (2/18)
Length of Visible Light 11h 49m
Length of Day
10h 55m
First Quarter, 58% of the Moon is Illuminated
Feb 18
First Quarter
Feb 25
Full
Mar 4
Last Quarter
Mar 11
New
Mar 19
First Quarter

Hourly Weather History & Observations

Time (CST) Temp. Windchill Dew Point Humidity Pressure Visibility Wind Dir Wind Speed Gust Speed Precip Events Conditions
12:15 AM 35.6 °F 30.7 °F 21.2 °F 56% 30.02 in 10.0 mi SE 5.8 mph - N/A   Clear
12:35 AM 35.6 °F 30.7 °F 21.2 °F 56% 30.02 in 10.0 mi SE 5.8 mph - N/A   Clear
12:55 AM 35.6 °F 29.9 °F 21.2 °F 56% 30.01 in 10.0 mi SE 6.9 mph - N/A   Clear
1:15 AM 35.6 °F 31.7 °F 21.2 °F 56% 30.00 in 10.0 mi SE 4.6 mph - N/A   Clear
1:55 AM 35.6 °F 30.7 °F 21.2 °F 56% 29.99 in 10.0 mi SE 5.8 mph - N/A   Clear
2:15 AM 35.6 °F 30.7 °F 21.2 °F 56% 29.98 in 10.0 mi SE 5.8 mph - N/A   Clear
2:35 AM 35.6 °F 31.7 °F 21.2 °F 56% 29.98 in 10.0 mi SE 4.6 mph - N/A   Clear
2:55 AM 35.6 °F 30.7 °F 23.0 °F 60% 29.98 in 10.0 mi SSE 5.8 mph - N/A   Clear
3:15 AM 33.8 °F 28.6 °F 23.0 °F 65% 29.97 in 10.0 mi South 5.8 mph - N/A   Clear
3:35 AM 35.6 °F 31.7 °F 24.8 °F 65% 29.96 in 10.0 mi SSE 4.6 mph - N/A   Clear
3:55 AM 35.6 °F 29.9 °F 24.8 °F 65% 29.96 in 10.0 mi SSE 6.9 mph - N/A   Clear
4:15 AM 37.4 °F 32.1 °F 26.6 °F 65% 29.96 in 10.0 mi South 6.9 mph - N/A   Clear
4:35 AM 37.4 °F 31.4 °F 26.6 °F 65% 29.96 in 10.0 mi South 8.1 mph - N/A   Clear
4:55 AM 37.4 °F 30.8 °F 28.4 °F 70% 29.96 in 10.0 mi South 9.2 mph - N/A   Clear
5:15 AM 39.2 °F 32.5 °F 28.4 °F 65% 29.95 in 10.0 mi South 10.4 mph - N/A   Clear
5:35 AM 39.2 °F 33.6 °F 28.4 °F 65% 29.95 in 10.0 mi South 8.1 mph - N/A   Clear
5:55 AM 39.2 °F 32.0 °F 30.2 °F 70% 29.94 in 10.0 mi South 11.5 mph - N/A   Clear
6:15 AM 39.2 °F 32.5 °F 30.2 °F 70% 29.94 in 10.0 mi South 10.4 mph - N/A   Clear
6:35 AM 41.0 °F 34.7 °F 32.0 °F 70% 29.94 in 10.0 mi South 10.4 mph 17.3 mph N/A   Clear
6:55 AM 39.2 °F 32.0 °F 32.0 °F 75% 29.94 in 10.0 mi South 11.5 mph - N/A   Clear
7:15 AM 41.0 °F 33.5 °F 33.8 °F 76% 29.94 in 10.0 mi South 13.8 mph - N/A   Clear
7:35 AM 42.8 °F 37.0 °F 33.8 °F 70% 29.94 in 10.0 mi South 10.4 mph - N/A   Clear
8:15 AM 44.6 °F 37.8 °F 37.4 °F 76% 29.93 in 10.0 mi South 15.0 mph 20.7 mph N/A   Clear
8:35 AM 46.4 °F 39.2 °F 37.4 °F 71% 29.93 in 10.0 mi South 18.4 mph 21.9 mph N/A   Clear
8:55 AM 46.4 °F 40.1 °F 39.2 °F 76% 29.92 in 10.0 mi South 15.0 mph - N/A   Clear
9:15 AM 50.0 °F - 42.8 °F 76% 29.91 in 10.0 mi South 18.4 mph 25.3 mph N/A   Clear
9:35 AM 51.8 °F - 42.8 °F 71% 29.90 in 10.0 mi South 18.4 mph 28.8 mph N/A   Clear
9:55 AM 53.6 °F - 42.8 °F 67% 29.90 in 10.0 mi South 19.6 mph 31.1 mph N/A   Partly Cloudy
10:15 AM 53.6 °F - 42.8 °F 67% 29.90 in 10.0 mi SSW 29.9 mph 35.7 mph N/A   Clear
10:55 AM 55.4 °F - 42.8 °F 63% 29.89 in 10.0 mi SSW 32.2 mph 36.8 mph N/A   Mostly Cloudy
11:15 AM 53.6 °F - 42.8 °F 67% 29.88 in 10.0 mi South 18.4 mph 31.1 mph N/A   Overcast
11:35 AM 55.4 °F - 42.8 °F 63% 29.88 in 10.0 mi South 24.2 mph 36.8 mph N/A   Overcast
11:55 AM 55.4 °F - 42.8 °F 63% 29.87 in 10.0 mi SSW 27.6 mph 32.2 mph N/A   Overcast
12:15 PM 55.4 °F - 42.8 °F 63% 29.86 in 10.0 mi SSW 29.9 mph 38.0 mph N/A   Overcast
12:35 PM 53.6 °F - 42.8 °F 67% 29.85 in 10.0 mi SSW 20.7 mph 32.2 mph N/A   Overcast
12:55 PM 55.4 °F - 42.8 °F 63% 29.83 in 10.0 mi SSW 21.9 mph 33.4 mph N/A   Overcast
1:15 PM 53.6 °F - 44.6 °F 72% 29.82 in 9.0 mi SSW 26.5 mph 34.5 mph N/A   Overcast
1:35 PM 51.8 °F - 44.6 °F 76% 29.81 in 10.0 mi South 17.3 mph - 0.01 in   Overcast
1:55 PM 51.8 °F - 46.4 °F 82% 29.80 in 9.0 mi South 18.4 mph - 0.02 in   Overcast
2:15 PM 51.8 °F - 46.4 °F 82% 29.79 in 8.0 mi South 21.9 mph 32.2 mph 0.01 in   Mostly Cloudy
2:35 PM 50.0 °F - 44.6 °F 82% 29.79 in 6.0 mi South 16.1 mph 27.6 mph 0.02 in   Overcast
2:55 PM 50.0 °F - 44.6 °F 82% 29.78 in 7.0 mi South 20.7 mph 32.2 mph 0.04 in   Overcast
3:15 PM 48.2 °F - 44.6 °F 87% 29.77 in 10.0 mi South 18.4 mph 25.3 mph 0.02 in   Overcast
3:35 PM 48.2 °F - 44.6 °F 87% 29.76 in 9.0 mi South 17.3 mph 23.0 mph 0.03 in   Overcast
3:55 PM 48.2 °F - 44.6 °F 87% 29.75 in 9.0 mi South 15.0 mph 24.2 mph 0.04 in   Overcast
4:15 PM 48.2 °F - 44.6 °F 87% 29.73 in 8.0 mi South 13.8 mph 19.6 mph N/A   Overcast
4:35 PM 48.2 °F - 44.6 °F 87% 29.71 in 8.0 mi South 15.0 mph 20.7 mph N/A   Overcast
4:55 PM 48.2 °F - 44.6 °F 87% 29.71 in 10.0 mi South 16.1 mph 20.7 mph 0.01 in   Overcast
5:35 PM 48.2 °F - 44.6 °F 87% 29.70 in 9.0 mi South 20.7 mph 28.8 mph 0.05 in   Overcast
6:15 PM 48.2 °F - 44.6 °F 87% 29.68 in 9.0 mi SSW 20.7 mph 26.5 mph 0.11 in   Overcast
6:35 PM 48.2 °F - 44.6 °F 87% 29.67 in 9.0 mi South 19.6 mph 26.5 mph 0.14 in   Overcast
7:15 PM 48.2 °F - 44.6 °F 87% 29.69 in 10.0 mi WSW 15.0 mph - N/A   Overcast
7:36 PM 48.2 °F - 44.6 °F 87% 29.68 in 10.0 mi WSW 9.2 mph - N/A   Overcast
7:55 PM 48.2 °F - 46.4 °F 93% 29.65 in 10.0 mi SSW 13.8 mph 19.6 mph N/A   Overcast
8:15 PM 48.2 °F - 44.6 °F 87% 29.65 in 10.0 mi South 16.1 mph - N/A   Overcast
8:35 PM 48.2 °F - 44.6 °F 87% 29.64 in 10.0 mi SSW 12.7 mph - N/A   Overcast
8:55 PM 48.2 °F - 44.6 °F 87% 29.66 in 10.0 mi SW 17.3 mph 27.6 mph 0.01 in   Overcast
9:35 PM 42.8 °F 35.8 °F 39.2 °F 87% 29.74 in 10.0 mi WNW 13.8 mph 27.6 mph 0.02 in   Overcast
10:15 PM 41.0 °F 36.4 °F 33.8 °F 76% 29.79 in 10.0 mi WNW 6.9 mph 25.3 mph N/A   Overcast
10:35 PM 39.2 °F 33.0 °F 33.8 °F 81% 29.80 in 10.0 mi West 9.2 mph 18.4 mph N/A   Overcast
10:55 PM 39.2 °F 35.0 °F 33.8 °F 81% 29.82 in 10.0 mi WNW 5.8 mph 17.3 mph N/A   Overcast
11:15 PM 39.2 °F 35.0 °F 33.8 °F 81% 29.83 in 10.0 mi WNW 5.8 mph - N/A   Overcast